Weather Roundup
Issued by NWS

Home | Current Version | Previous Version | Graphics & Text | Print | Product List | Glossary Off
Versions: 1 2 3 4 5 6 7 8 9 10 11 12 13 14 15 16 17 18 19 20 21 22 23 24 25 26 27 28 29 30 31 32 33 34 35 36 37 38 39 40 41 42 43 44 45 46 47 48 49 50

000
NZUS93 KARX 190510
HRRWXR

CURRENT HOURLY OBSERVATIONS ACROSS
MUCH OF THE UPPER MISSISSIPPI VALLEY
NATIONAL WEATHER SERVICE LA CROSSE WI
1100 PM CST SAT FEB 18 2017


...SOUTHEAST MINNESOTA...


CITY           SKY/WX    TMP DP  RH WIND       PRES   REMARKS
ROCHESTER      CLEAR     40  38  93 W5        29.88R
ROCHESTER/MAYO FAIR      42  37  81 CALM      29.88R
WINONA         CLOUDY    34  32  93 CALM      29.88F
AUSTIN         FOG       36  34  93 CALM      29.86S VSB 3/4
ALBERT LEA     CLEAR     34  34 100 CALM      29.87S
DODGE CENTER   FOG       36  36 100 CALM      29.87S VSB 1/4
PRESTON        CLEAR     39  37  90 W5        29.88S
OWATONNA       CLEAR     32  30  93 CALM      29.87R
FARIBAULT      CLOUDY    32  30  93 CALM      29.86F
$$

...ELSEWHERE IN MINNESOTA...


CITY           SKY/WX    TMP DP  RH WIND       PRES   REMARKS
MINNEAPOLIS    MOCLDY    42  34  73 CALM      29.84F
INTNL FALLS    PTCLDY    32  28  85 W3        29.80R
DULUTH         PTCLDY    42  32  67 NW10      29.79R
RED WING       CLOUDY    36  32  87 CALM      29.85F
REDWOOD FALLS  CLEAR     39  34  82 SE10      29.82S WCI  32
MANKATO          N/A     41  35  79 SE8       29.85F
WORTHINGTON    CLEAR     38  36  92 SE6       29.85R WCI  33
FAIRMONT       CLEAR     37  36  96 S6        29.85S WCI  32
$$

...SOUTHWEST WISCONSIN...


CITY           SKY/WX    TMP DP  RH WIND       PRES   REMARKS
LA CROSSE      CLOUDY    36  31  82 CALM      29.87S
PRAIRIE DU CHI CLEAR     33  32  95 CALM      29.88R
BOSCOBEL       CLEAR     32  30  92 CALM      29.89R
LONE ROCK      CLEAR     32  29  88 W3        29.88R
PLATTEVILLE    CLEAR     43  42  97 CALM      29.87R
FORT MC COY    CLOUDY    31  27  84 CALM      29.89R
CAMP DOUGLAS   CLOUDY    32  29  86 CALM      29.86R
MAUSTON-NEW LI CLOUDY    34  30  86 CALM      29.86R
VIROQUA        FAIR      44  30  57 CALM      29.86S
WIS DELLS      CLEAR     34  29  82 S3        29.87R
$$

...ELSEWHERE IN WISCONSIN...


CITY           SKY/WX    TMP DP  RH WIND       PRES   REMARKS
MILWAUKEE      CLEAR     47  39  74 NW3       29.84R
MADISON        PTCLDY    32  31  96 CALM      29.86R
GREEN BAY      CLOUDY    43  33  68 W8        29.81R
EAU CLAIRE     PTCLDY    37  32  82 S3        29.84F
BLACK RVR FLS  FAIR      28  25  89 CALM      29.86S
MEDFORD        PTCLDY    40  31  71 W5        29.83S
WAUSAU         PTCLDY    41  32  70 NW5       29.82R
WIS RAPIDS     CLOUDY    36  29  75 CALM      29.86R
MARSHFIELD     CLOUDY    41  32  70 W7        29.83S
RICE LAKE      CLOUDY    36  33  88 CALM      29.85S
$$

...NORTHEAST IOWA...


CITY           SKY/WX    TMP DP  RH WIND       PRES   REMARKS
WATERLOO       FOG       28  28 100 NW3       29.88R VSB 1/4
DUBUQUE        CLEAR     37  33  85 N6        29.86R WCI  32
DECORAH        CLOUDY    39  37  93 CALM      29.86F
MASON CITY     FOG       33  33 100 CALM      29.87F VSB 1/4
CHARLES CITY   FOG       37  37 100 NE6       29.88S VSB 1/4 WCI  33
OELWEIN        CLEAR     37  37 100 N5        29.88R WCI  34
$$

...ELSEWHERE IN IOWA...


CITY           SKY/WX    TMP DP  RH WIND       PRES   REMARKS
DES MOINES     CLOUDY    50  38  63 E5        29.86R
IOWA CITY      CLEAR     36  31  82 CALM      29.88R
FORT DODGE     CLOUDY    34  30  86 E5        29.86S VSB 1/2 WCI  30
MARSHALLTOWN   FOG       33  33 100 CALM      29.87R VSB 1/4
CEDAR RAPIDS   CLEAR     37  35  92 N5        29.86R WCI  33
$$

...NORTHERN ILLINOIS...


CITY           SKY/WX    TMP DP  RH WIND       PRES   REMARKS
CHICAGO-OHARE  CLEAR     44  36  73 NW3       29.83R
CHICAGO-MIDWAY CLEAR     47  34  60 CALM      29.83R
MOLINE         CLEAR     36  29  75 CALM      29.86R
ROCKFORD       CLEAR     39  33  79 CALM      29.87R
PEORIA         CLEAR     45  38  76 SE5       29.86R
$$

NOTE: "FAIR" INDICATES FEW OR NO CLOUDS BELOW 12,000 FEET WITH NO
SIGNIFICANT WEATHER AND/OR OBSTRUCTIONS TO VISIBILITY. WIND
SPEEDS ARE IN MILES-PER-HOUR.




USA.gov is the U.S. government's official web portal to all federal, state and local government web resources and services.